Location: Unspecified
(0.0000°N, 0.0000°E)
Time: 12:42:47
(UTC+00:00)

Tiangong 1 - Pass Details

Date: 13 December 2017
Orbit: 274 x 301 km, 42.8° (Epoch: 16 December)

Event Time Altitude Azimuth Distance (km) Brightness Sun altitude
Rises 18:25:59 0° 291° (WNW) 1,959 5.4 -7.2°
Reaches altitude 10° 18:28:21 10° 267° (W) 1,136 4.8 -7.8°
Maximum altitude 18:30:04 16° 225° (SW) 863 4.0 -8.2°
Drops below altitude 10° 18:31:46 10° 183° (S) 1,129 3.8 -8.6°
Sets 18:34:07 0° 159° (SSE) 1,941 4.7 -9.1°
